[[{"header":{"parameterUnit":"m.s-1","parameterCategory":1,"la1":30.2991,"la2":30.254,"lo1":-89.0895,"lo2":-89.0444,"dy":0.0017,"dx":0.0017,"nx":28,"ny":28,"refTime":"2025-05-15T21:00:00:Z","depth":0,"parameterNumber":2,"parameterNumberName":"U-component_of_WINDS"},"data":[0,0,0,0,0,0,0,0,0,0,0,0,0,0,0,0,0,0,0,0,0,0,0,0,0,0,0,0,0,0,0,0,0,0,0,0,0,0,0,0,0,0,0,0,0,0,0,0,0,0,0,0,0,0,0,0,0,0,-0.4076,-0.4075,0,-0.3957,-0.3956,-0.3954,-0.3906,-0.3906,-0.3907,-0.3907,-0.3785,-0.3782,-0.3778,0,0,0,0,0,0,0,0,0,0,0,0,0,-0.4264,-0.4261,-0.4077,-0.4075,-0.4074,-0.3957,-0.3956,-0.3954,-0.3906,-0.3906,-0.3907,-0.3907,-0.3786,-0.3782,-0.3778,0,0,0,0,0,0,0,0,0,0,0,0,0,-0.4167,-0.426,-0.4077,-0.4036,-0.4031,-0.3958,-0.3956,-0.3954,-0.3906,-0.3906,-0.3907,-0.3907,-0.3788,-0.3783,-0.3778,-0.3737,0,0,-0.3762,-0.3759,0,0,0,0,0,0,0,0,-0.4173,-0.4161,-0.4043,-0.4038,-0.4033,-0.3947,-0.3977,-0.3881,-0.3906,-0.3953,-0.3907,-0.3907,-0.3839,-0.3829,-0.3806,-0.3731,-0.3726,-0.3761,-0.3758,-0.3756,-0.3754,0,0,0,0,0,0,0,-0.418,-0.4165,-0.4029,-0.4042,-0.4035,-0.4023,-0.401,-0.3959,-0.3895,-0.3949,-0.3945,-0.3932,-0.3836,-0.3811,-0.3803,-0.3724,-0.3761,-0.3757,-0.3753,-0.3751,-0.361,-0.361,0,0,0,0,0,0,-0.4193,-0.4171,-0.4033,-0.4026,-0.4105,-0.402,-0.4005,-0.3974,-0.3896,-0.3884,-0.3932,-0.393,-0.382,-0.3809,-0.3798,-0.3745,-0.3756,-0.3751,-0.3748,-0.3611,-0.361,-0.3609,0,0,0,0,0,0,-0.4197,-0.4181,-0.4038,-0.4097,-0.4078,-0.4016,-0.3982,-0.3971,-0.3947,-0.3882,-0.3871,-0.3918,-0.382,-0.3806,-0.3753,-0.374,-0.3748,-0.3744,-0.3612,-0.3611,-0.361,-0.3639,0,0,0,0,0,0,-0.4203,-0.4183,-0.4167,-0.4097,-0.4075,-0.3994,-0.3981,-0.3969,-0.3938,-0.3934,-0.3866,-0.3856,-0.3819,-0.3761,-0.3747,-0.3733,-0.374,-0.3612,-0.3611,-0.361,-0.3639,-0.364,-0.364,0,0,0,0,0,-0.421,-0.418,-0.4166,-0.415,-0.4054,-0.3993,-0.3981,-0.3939,-0.3937,-0.392,-0.3879,-0.3858,-0.3744,-0.3756,-0.374,-0.3725,-0.3613,-0.3611,-0.361,-0.3639,-0.3639,-0.364,0,0,0,0,0,0,-0.425,-0.417,-0.4154,-0.4101,-0.4054,-0.3985,-0.3963,-0.3941,-0.3894,-0.3893,-0.3844,-0.3829,-0.378,-0.3747,-0.3761,-0.3681,-0.3677,-0.3672,-0.3704,-0.3704,-0.3704,-0.3713,-0.3735,0,0,0,0,0,-0.4252,-0.4209,-0.4143,-0.4102,-0.408,-0.4025,-0.3998,-0.397,-0.3919,-0.3899,-0.3854,-0.3807,-0.376,-0.373,-0.3684,-0.3635,-0.3619,-0.3616,-0.3617,-0.3617,-0.3614,-0.3585,-0.3583,-0.3605,-0.3605,-0.3605,0,0,-0.4257,-0.4208,-0.4184,-0.4109,-0.4069,-0.4027,-0.4009,-0.3964,-0.3932,-0.3893,-0.3839,-0.3805,-0.3748,-0.3697,-0.3672,-0.3668,-0.3604,-0.3616,-0.3617,-0.3612,-0.3583,-0.3581,-0.358,-0.3604,-0.3604,-0.3604,0,0,-0.4244,-0.4203,-0.4165,-0.4125,-0.4066,-0.403,-0.4021,-0.3955,-0.3931,-0.3876,-0.3846,-0.3807,-0.3728,-0.3689,-0.3659,-0.3632,-0.3611,-0.3618,-0.362,-0.3593,-0.3591,-0.3589,-0.3579,-0.3576,-0.3615,-0.3615,-0.3615,0,-0.4258,-0.4191,-0.4148,-0.4104,-0.4072,-0.4035,-0.3995,-0.396,-0.3888,-0.3867,-0.3864,-0.3764,-0.3724,-0.3662,-0.3656,-0.3633,-0.3621,-0.3625,-0.3595,-0.3592,-0.359,-0.358,-0.3576,-0.3617,-0.3616,-0.3616,-0.3616,0,-0.4211,-0.4165,-0.4141,-0.4073,-0.4038,-0.3997,-0.3948,-0.3918,-0.3894,-0.3858,-0.3804,-0.3754,-0.3697,-0.3681,-0.3656,-0.3616,-0.3615,-0.3604,-0.3599,-0.359,-0.3579,-0.3575,-0.3618,-0.3618,-0.3618,-0.3617,0,0,-0.4218,-0.4126,-0.4118,-0.4087,-0.4019,-0.3983,-0.3941,-0.3884,-0.386,-0.3812,-0.3775,-0.371,-0.3699,-0.3665,-0.3636,-0.3612,-0.3593,-0.3604,-0.3602,-0.3603,-0.3545,-0.3553,-0.355,-0.358,-0.3579,-0.3578,-0.355,0,-0.4195,-0.4117,-0.4077,-0.4016,-0.3973,-0.3938,-0.3901,-0.3855,-0.3822,-0.3781,-0.3744,-0.3698,-0.3688,-0.3667,-0.3642,-0.3601,-0.3581,-0.3603,-0.3545,-0.3543,-0.3559,-0.3544,-0.3552,-0.3528,-0.3546,-0.3545,-0.3544,0,-0.4158,-0.411,-0.4045,-0.3981,-0.3962,-0.3929,-0.3875,-0.3836,-0.3784,-0.3761,-0.3724,-0.3696,-0.365,-0.3649,-0.3586,-0.3602,-0.3576,-0.3553,-0.3551,-0.3543,-0.3542,-0.3535,-0.352,-0.3516,-0.3538,-0.3538,-0.3539,0,-0.4169,-0.4088,-0.4039,-0.4013,-0.3938,-0.3916,-0.3884,-0.3832,-0.3801,-0.3754,-0.3733,-0.3681,-0.3653,-0.3614,-0.3573,-0.3576,-0.3513,-0.3509,-0.3493,-0.3494,-0.348,-0.3482,-0.346,-0.3466,-0.3466,-0.3466,-0.3466,0,-0.4146,-0.4108,-0.4042,-0.4012,-0.3968,-0.3922,-0.388,-0.3845,-0.38,-0.3762,-0.3729,-0.3695,-0.3643,-0.3602,-0.357,-0.3522,-0.351,-0.349,-0.3482,-0.3492,-0.3495,-0.3474,-0.3474,-0.3465,-0.3465,-0.3465,-0.3465,0,-0.4151,-0.4106,-0.4049,-0.3983,-0.3965,-0.3936,-0.3879,-0.3848,-0.3813,-0.3766,-0.3753,-0.3698,-0.3648,-0.3603,-0.3538,-0.3516,-0.3467,-0.3457,-0.3485,-0.348,-0.3466,-0.3468,-0.3429,-0.3422,-0.3434,-0.3434,-0.3434,0,-0.4139,-0.4108,-0.4039,-0.4011,-0.3979,-0.3935,-0.3903,-0.3858,-0.3826,-0.3764,-0.3741,-0.3689,-0.3645,-0.3567,-0.3522,-0.3472,-0.346,-0.345,-0.3452,-0.3464,-0.3459,-0.346,-0.3457,-0.345,-0.345,-0.345,-0.345,0,-0.4123,-0.4102,-0.4057,-0.4004,-0.3966,-0.3922,-0.3878,-0.3857,-0.3804,-0.377,-0.3718,-0.3684,-0.3617,-0.3566,-0.351,-0.3478,-0.3455,-0.345,-0.3443,-0.3453,-0.347,-0.346,-0.3485,-0.3451,-0.3451,-0.3451,-0.345,-0.345,-0.4118,-0.4089,-0.4035,-0.3986,-0.3947,-0.3907,-0.3874,-0.3835,-0.3791,-0.3732,-0.3709,-0.3657,-0.3606,-0.3529,-0.3497,-0.3456,-0.3452,-0.3442,-0.344,-0.3438,-0.344,-0.3478,-0.3446,-0.3446,-0.3446,-0.3446,-0.3446,0,-0.4099,-0.4063,-0.4018,-0.3956,-0.3918,-0.39,-0.3849,-0.3818,-0.3772,-0.3727,-0.3684,-0.3625,-0.3575,-0.3527,-0.3474,-0.3451,-0.3439,-0.3439,-0.3439,-0.3432,-0.3447,-0.3457,-0.3449,-0.3449,-0.3449,-0.3449,-0.3449,-0.3449,-0.4085,-0.4034,-0.4007,-0.3938,-0.3902,-0.385,-0.3822,-0.3785,-0.3748,-0.3684,-0.3642,-0.361,-0.3563,-0.3507,-0.3461,-0.3448,-0.343,-0.3433,-0.3417,-0.3431,-0.3431,-0.3431,-0.3441,-0.3429,-0.3429,-0.3405,-0.3405,-0.3405]},{"header":{"parameterUnit":"m.s-1","parameterCategory":1,"la1":30.2991,"la2":30.254,"lo1":-89.0895,"lo2":-89.0444,"dy":0.0017,"dx":0.0017,"nx":28,"ny":28,"refTime":"2025-05-15T21:00:00:Z","depth":0,"parameterNumber":3,"parameterNumberName":"V-component_of_WINDS"},"data":[0,0,0,0,0,0,0,0,0,0,0,0,0,0,0,0,0,0,0,0,0,0,0,0,0,0,0,0,0,0,0,0,0,0,0,0,0,0,0,0,0,0,0,0,0,0,0,0,0,0,0,0,0,0,0,0,0,0,5.4445,5.4445,0,5.4418,5.4418,5.4417,5.4377,5.4376,5.4375,5.4375,5.4344,5.4344,5.4344,0,0,0,0,0,0,0,0,0,0,0,0,0,5.446,5.446,5.4445,5.4445,5.4444,5.4418,5.4418,5.4417,5.4377,5.4376,5.4375,5.4374,5.4344,5.4344,5.4344,0,0,0,0,0,0,0,0,0,0,0,0,0,5.4445,5.446,5.4445,5.4421,5.4419,5.4418,5.4418,5.4417,5.4377,5.4376,5.4375,5.4374,5.4344,5.4344,5.4344,5.4364,0,0,5.4343,5.4343,0,0,0,0,0,0,0,0,5.4446,5.4445,5.4425,5.4423,5.442,5.44,5.4412,5.4399,5.4377,5.4393,5.4375,5.4373,5.4363,5.4362,5.4359,5.4362,5.4361,5.4343,5.4343,5.4343,5.4343,0,0,0,0,0,0,0,5.4447,5.4446,5.4434,5.4425,5.4422,5.4411,5.4408,5.4409,5.4384,5.4391,5.4388,5.4386,5.4362,5.4359,5.4358,5.4361,5.4343,5.4343,5.4343,5.4343,5.4381,5.4382,0,0,0,0,0,0,5.4452,5.4447,5.4435,5.4433,5.4431,5.4412,5.4408,5.4407,5.4384,5.438,5.4387,5.4384,5.436,5.4358,5.4357,5.438,5.4343,5.4343,5.4343,5.438,5.4381,5.4383,0,0,0,0,0,0,5.4452,5.4451,5.4436,5.4439,5.4436,5.4413,5.4412,5.4407,5.4404,5.4381,5.4376,5.4389,5.4359,5.4357,5.4363,5.4378,5.4343,5.4343,5.4379,5.438,5.4382,5.4425,0,0,0,0,0,0,5.4453,5.4452,5.4459,5.444,5.4437,5.4444,5.4413,5.4407,5.4405,5.4401,5.4381,5.4377,5.4358,5.4364,5.4363,5.4377,5.4342,5.4377,5.4379,5.4381,5.4422,5.4428,5.4433,0,0,0,0,0,5.4454,5.4471,5.446,5.4459,5.4446,5.4444,5.4442,5.4421,5.4406,5.4413,5.4398,5.4378,5.4376,5.4365,5.4363,5.4378,5.4376,5.4379,5.4381,5.442,5.4427,5.4433,0,0,0,0,0,0,5.4492,5.4468,5.4455,5.4467,5.4458,5.4438,5.4446,5.4429,5.4424,5.442,5.4393,5.4389,5.4399,5.4389,5.4376,5.4397,5.4373,5.4376,5.4403,5.441,5.4415,5.4417,5.4342,0,0,0,0,0,5.4502,5.4504,5.4483,5.4495,5.4492,5.447,5.4469,5.4453,5.4442,5.4438,5.4423,5.4413,5.4411,5.4409,5.4406,5.4421,5.4416,5.443,5.4436,5.444,5.4443,5.4451,5.4458,5.4391,5.4391,5.4391,0,0,5.4522,5.451,5.4512,5.4503,5.4494,5.4496,5.4467,5.447,5.4471,5.4438,5.4444,5.4433,5.442,5.4431,5.4435,5.4423,5.446,5.4443,5.4447,5.4447,5.4455,5.4461,5.4467,5.4393,5.4393,5.4392,0,0,5.4561,5.4551,5.4562,5.4554,5.4542,5.4527,5.453,5.4512,5.4504,5.451,5.4485,5.4486,5.4482,5.4474,5.447,5.4507,5.4489,5.4507,5.4535,5.4544,5.4549,5.4554,5.4569,5.4574,5.4509,5.4509,5.4509,0,5.4588,5.4591,5.4569,5.4574,5.4571,5.4543,5.4553,5.4546,5.4533,5.4532,5.4518,5.4514,5.4503,5.4513,5.4522,5.4519,5.4522,5.4509,5.4551,5.4555,5.4559,5.4572,5.4578,5.4512,5.4512,5.4511,5.4511,0,5.4625,5.4627,5.4637,5.4627,5.4625,5.4632,5.4612,5.4612,5.4597,5.4585,5.4591,5.4577,5.4571,5.4572,5.4557,5.458,5.4573,5.4556,5.4532,5.4568,5.458,5.4585,5.4515,5.4514,5.4514,5.4513,0,0,5.4686,5.4665,5.4669,5.4664,5.4649,5.4651,5.4658,5.4653,5.4654,5.4646,5.4652,5.465,5.4634,5.4629,5.4613,5.4621,5.4654,5.4602,5.4602,5.4613,5.468,5.4694,5.47,5.4641,5.4642,5.4643,5.4681,0,5.4722,5.4733,5.4715,5.473,5.4733,5.4707,5.4713,5.4704,5.4693,5.4693,5.468,5.468,5.4658,5.4656,5.4662,5.4648,5.4667,5.4645,5.4646,5.4646,5.4651,5.4707,5.4721,5.4758,5.4686,5.4687,5.4687,0,5.4765,5.4761,5.4778,5.4764,5.4764,5.477,5.4765,5.4766,5.4756,5.4747,5.4743,5.4724,5.473,5.4707,5.4715,5.4701,5.4701,5.4694,5.4695,5.4694,5.4669,5.4708,5.4769,5.4775,5.4695,5.4694,5.4693,0,5.481,5.4808,5.4818,5.4815,5.4799,5.4804,5.4797,5.4786,5.4785,5.4781,5.478,5.4775,5.4773,5.477,5.4752,5.4736,5.4763,5.4738,5.4756,5.4756,5.4762,5.4762,5.4825,5.4761,5.4761,5.4761,5.4761,0,5.4852,5.4864,5.4839,5.4845,5.4857,5.4835,5.4848,5.4838,5.483,5.4834,5.481,5.4814,5.4789,5.479,5.4775,5.4785,5.4784,5.4777,5.4773,5.478,5.4781,5.4779,5.4776,5.4762,5.4762,5.4762,5.4761,0,5.4904,5.4887,5.4897,5.4881,5.4878,5.4887,5.4874,5.4879,5.4867,5.4872,5.4872,5.4853,5.4853,5.4834,5.4831,5.4821,5.4837,5.4828,5.4841,5.4839,5.4858,5.4857,5.4923,5.4931,5.4861,5.4862,5.4862,0,5.4933,5.4941,5.4927,5.4928,5.4923,5.4926,5.4925,5.4904,5.4905,5.4895,5.4902,5.4901,5.4899,5.4902,5.4887,5.4885,5.4876,5.4899,5.4875,5.4882,5.4877,5.4878,5.4879,5.4904,5.4905,5.4906,5.4906,0,5.4986,5.4978,5.4978,5.4976,5.4976,5.4973,5.4969,5.4971,5.4949,5.495,5.4952,5.495,5.4948,5.4948,5.4943,5.4935,5.4918,5.4914,5.4918,5.4925,5.4933,5.493,5.4856,5.4912,5.4912,5.4911,5.4911,5.4911,5.5027,5.5034,5.5026,5.5027,5.5022,5.5019,5.5024,5.5013,5.5014,5.5011,5.4999,5.5002,5.4994,5.4986,5.498,5.4983,5.4971,5.4977,5.4979,5.4981,5.4985,5.4932,5.4982,5.4981,5.4981,5.4981,5.4981,0,5.508,5.5074,5.5076,5.5071,5.5073,5.5056,5.5051,5.5053,5.5057,5.5051,5.5051,5.5053,5.5053,5.5039,5.5037,5.5042,5.5034,5.5043,5.5042,5.5041,5.4995,5.4992,5.505,5.505,5.505,5.505,5.505,5.505,5.5108,5.5119,5.511,5.5119,5.5113,5.5117,5.5116,5.5113,5.5108,5.5112,5.5113,5.5104,5.5095,5.5093,5.5093,5.5088,5.5089,5.5101,5.5094,5.5051,5.5044,5.5038,5.5035,5.5101,5.5101,5.5141,5.5141,5.5141]}]]